Tracking 22879 objects as of 21-Apr-2021
HD Live streaming from Space Station
objects crossing your sky now

STARLINK-2098

Track STARLINK-2098 now!
10-day predictions
STARLINK-2098 is classified as:


NORAD ID: 47378
Int'l Code: 2021-005AF
Perigee: 383.9 km
Apogee: 389.5 km
Inclination: 53.1 °
Period: 92.1 minutes
Semi major axis: 6757 km
RCS: Unknown
Launch date: January 20, 2021
Source: United States (US)
Launch site: AIR FORCE EASTERN TEST RANGE (AFETR)
aabbcc
Your satellite tracking list
Your tracking list is empty




NASA's NSSDC Master Catalog

Two Line Element Set (TLE):
1 47378U 21005AF  21110.58335648 -.00066185  00000-0 -72122-3 0  9999
2 47378  53.0538 129.5401 0004155   3.2470 350.2619 15.62798705  1768
Source of the keplerian elements: AFSPC